Weather Roundup
Issued by NWS

Home | Current Version | Previous Version | Text Only | Print | Product List | Glossary On
Versions: 1 2 3 4 5 6 7 8 9 10 11 12 13 14 15 16 17 18 19 20 21 22 23 24 25 26 27 28 29 30 31 32 33 34 35 36 37 38 39 40 41 42 43 44 45 46 47 48 49 50
000
NZUS93 KARX 240110
HRRWXR

CURRENT HOURLY OBSERVATIONS ACROSS
MUCH OF THE UPPER MISSISSIPPI VALLEY
NATIONAL WEATHER SERVICE LA CROSSE WI
800 PM CDT TUE SEP 23 2014


...SOUTHEAST MINNESOTA...


CITY           SKY/WX    TMP DP  RH WIND       PRES   REMARKS
ROCHESTER      CLOUDY    60  51  72 SE7       30.20S
ROCHESTER/MAYO FAIR      64  48  56 SE8       30.19R
WINONA         MOCLDY    61  52  72 CALM      30.20R
AUSTIN         CLOUDY    64  48  55 SE7       30.17S
ALBERT LEA     CLOUDY    64  52  63 S7        30.17R
DODGE CENTER   CLOUDY    63  52  67 SE7       30.18R
PRESTON        CLOUDY    62  55  77 SE6       30.21R
OWATONNA       CLOUDY    64  52  63 SE7       30.16R
FARIBAULT      CLOUDY    68  48  49 SE7       30.16R
$$

...ELSEWHERE IN MINNESOTA...


CITY           SKY/WX    TMP DP  RH WIND       PRES   REMARKS
MINNEAPOLIS    MOCLDY    66  52  60 SE8       30.14S
INTNL FALLS    CLEAR     62  51  67 VRB5      30.09R
DULUTH         MOCLDY    63  51  65 SE7       30.16R
RED WING       MOCLDY    64  52  63 SE7       30.16R
REDWOOD FALLS  CLOUDY    63  53  70 SE14      30.09F
MANKATO        CLOUDY    64  46  52 S6        30.13S
WORTHINGTON    CLOUDY    57  54  88 SE10G17   30.10S
FAIRMONT       CLOUDY    61  48  63 SE13      30.12R
$$

...SOUTHWEST WISCONSIN...


CITY           SKY/WX    TMP DP  RH WIND       PRES   REMARKS
LA CROSSE      PTCLDY    66  51  58 E6        30.21R
PRAIRIE DU CHI MOCLDY    60  50  69 E6        30.22R
BOSCOBEL       PTCLDY    58  54  86 CALM      30.24R
LONE ROCK      PTCLDY    60  50  69 E3        30.25R
PLATTEVILLE    PTCLDY    64  49  57 E6        30.25R
FORT MC COY    PTCLDY    56  53  90 E3        30.24R
CAMP DOUGLAS   MOCLDY    52  52 100 E3        30.24R FOG
VIROQUA        FAIR      61  49  65 SE5       30.24R
WIS DELLS      MOCLDY    60  50  69 CALM      30.25R
$$

...ELSEWHERE IN WISCONSIN...


CITY           SKY/WX    TMP DP  RH WIND       PRES   REMARKS
MILWAUKEE      PTCLDY    60  47  61 S6        30.29R
MADISON        MOCLDY    59  52  77 CALM      30.26R
GREEN BAY      CLEAR     59  55  87 SE5       30.27R
EAU CLAIRE     PTCLDY    63  52  67 SE6       30.20R
BLACK RVR FLS  FAIR      55  54  99 SE3       30.21S
MEDFORD        MOCLDY    56  51  85 S3        30.24R
WAUSAU         PTCLDY    60  53  77 CALM      30.23R
WIS RAPIDS     MOCLDY    58  53  84 CALM      30.26R
MARSHFIELD     MOCLDY    59  52  77 S5        30.24R
RICE LAKE      MOCLDY    62  51  68 SE5       30.21R
$$

...NORTHEAST IOWA...


CITY           SKY/WX    TMP DP  RH WIND       PRES   REMARKS
WATERLOO       CLOUDY    64  49  57 SE9       30.19R
DUBUQUE        MOCLDY    61  49  64 SE8       30.24S
DECORAH        CLOUDY    63  50  63 SE6       30.21R
MASON CITY     CLOUDY    64  49  57 SE9       30.18S
CHARLES CITY   CLOUDY    63  48  59 SE8       30.20R
OELWEIN        CLOUDY    59  50  72 SE6       30.22R
$$

...ELSEWHERE IN IOWA...


CITY           SKY/WX    TMP DP  RH WIND       PRES   REMARKS
DES MOINES     CLOUDY    67  53  61 SE9       30.16S
IOWA CITY      MOCLDY    61  54  77 CALM      30.22S
FORT DODGE     CLOUDY    64  52  63 SE6       30.14S
MARSHALLTOWN   CLOUDY    62  51  67 SE7       30.18S
CEDAR RAPIDS   MOCLDY    59  52  77 SE5       30.20F
$$

...NORTHERN ILLINOIS...


CITY           SKY/WX    TMP DP  RH WIND       PRES   REMARKS
CHICAGO-OHARE  PTCLDY    65  48  54 E8        30.29R
DUPAGE         CLEAR     58  52  80 CALM      30.28R
CHICAGO-MIDWAY PTCLDY    66  50  56 E8        30.29R
MOLINE         CLOUDY    60  50  69 SE5       30.23S
ROCKFORD       MOCLDY    62  50  64 SE5       30.29R
STERLING       PTCLDY    57  48  72 S3        30.25S
PEORIA         MOCLDY    65  53  65 E5        30.25R
$$

NOTE: "FAIR" INDICATES FEW OR NO CLOUDS BELOW 12,000 FEET WITH NO
SIGNIFICANT WEATHER AND/OR OBSTRUCTIONS TO VISIBILITY. WIND
SPEEDS ARE IN MILES-PER-HOUR.



USA.gov is the U.S. government's official web portal to all federal, state and local government web resources and services.